�������l�o���
Date,Time,MP-1(��Sv/h),MP-2(��Sv/h),MP-3(��Sv/h),MP-4(��Sv/h),MP-5(��Sv/h),MP-6(��Sv/h),MP-7(��Sv/h),MP-8(��Sv/h),����,����(m/s),���J
2021/06/16,00:00,0.643,0.952,0.598,1.162,0.837,0.375,0.656,0.611,-,CALM,��
2021/06/16,00:10,0.639,0.953,0.601,1.161,0.835,0.377,0.655,0.609,-,CALM,��
2021/06/16,00:20,0.642,0.952,0.599,1.162,0.836,0.377,0.655,0.611,��,0.6,��
2021/06/16,00:30,0.641,0.950,0.599,1.162,0.837,0.376,0.656,0.612,-,CALM,��
2021/06/16,00:40,0.643,0.953,0.599,1.163,0.836,0.378,0.658,0.609,��쐼,1.1,��
2021/06/16,00:50,0.643,0.953,0.600,1.164,0.837,0.376,0.656,0.611,��쐼,1.4,��
2021/06/16,01:00,0.642,0.952,0.600,1.164,0.836,0.377,0.654,0.610,��쓌,1.7,��
2021/06/16,01:10,0.640,0.954,0.599,1.164,0.836,0.377,0.656,0.611,��,1.5,��
2021/06/16,01:20,0.642,0.954,0.599,1.163,0.838,0.376,0.657,0.612,��쓌,1.7,��
2021/06/16,01:30,0.642,0.953,0.598,1.162,0.836,0.378,0.656,0.612,��,1.7,��
2021/06/16,01:40,0.643,0.953,0.599,1.164,0.837,0.377,0.655,0.610,��,1.2,��
2021/06/16,01:50,0.643,0.951,0.598,1.161,0.837,0.375,0.658,0.610,��,1.5,��
2021/06/16,02:00,0.643,0.954,0.600,1.163,0.837,0.376,0.656,0.611,-,CALM,��
2021/06/16,02:10,0.642,0.952,0.602,1.164,0.839,0.377,0.656,0.610,-,CALM,��
2021/06/16,02:20,0.642,0.952,0.601,1.163,0.839,0.378,0.656,0.610,-,CALM,��
2021/06/16,02:30,0.641,0.951,0.598,1.163,0.837,0.378,0.657,0.610,��쐼,0.6,��
2021/06/16,02:40,0.642,0.952,0.599,1.164,0.837,0.376,0.657,0.611,��쐼,0.6,��
2021/06/16,02:50,0.642,0.953,0.599,1.163,0.836,0.375,0.656,0.610,��쐼,0.6,��
2021/06/16,03:00,0.643,0.954,0.600,1.163,0.835,0.375,0.655,0.611,���쐼,0.8,��
2021/06/16,03:10,0.641,0.954,0.599,1.163,0.835,0.378,0.656,0.610,��쐼,1.1,��
2021/06/16,03:20,0.643,0.953,0.599,1.162,0.836,0.377,0.655,0.612,���쐼,0.6,��
2021/06/16,03:30,0.643,0.953,0.600,1.164,0.836,0.377,0.656,0.611,�쐼,0.6,��
2021/06/16,03:40,0.643,0.954,0.601,1.162,0.836,0.378,0.655,0.611,���k��,1.2,��
2021/06/16,03:50,0.643,0.951,0.600,1.167,0.839,0.379,0.656,0.610,�k��,0.8,��
2021/06/16,04:00,0.643,0.954,0.600,1.164,0.837,0.379,0.657,0.610,�k��,1.4,��
2021/06/16,04:10,0.641,0.953,0.599,1.163,0.837,0.378,0.655,0.612,�k��,0.9,��
2021/06/16,04:20,0.642,0.954,0.600,1.166,0.836,0.377,0.657,0.610,-,CALM,��
2021/06/16,04:30,0.642,0.953,0.600,1.163,0.837,0.377,0.656,0.611,-,CALM,��
2021/06/16,04:40,0.643,0.951,0.601,1.163,0.836,0.378,0.658,0.613,�k��,0.8,��
2021/06/16,04:50,0.642,0.954,0.599,1.164,0.836,0.379,0.655,0.611,�k,1.2,��
2021/06/16,05:00,0.642,0.951,0.601,1.163,0.837,0.378,0.657,0.612,-,CALM,��
2021/06/16,05:10,0.640,0.954,0.601,1.164,0.836,0.378,0.657,0.611,�k,1.5,��
2021/06/16,05:20,0.642,0.954,0.600,1.164,0.838,0.378,0.658,0.612,�k��,1.9,��
2021/06/16,05:30,0.643,0.955,0.601,1.164,0.837,0.377,0.657,0.611,�k�k��,2.8,��
2021/06/16,05:40,0.641,0.953,0.600,1.162,0.837,0.378,0.658,0.612,�k�k��,3.3,��
2021/06/16,05:50,0.643,0.954,0.601,1.165,0.837,0.377,0.657,0.613,�k�k��,3.8,��
2021/06/16,06:00,0.643,0.953,0.600,1.163,0.839,0.379,0.657,0.612,�k�k��,2.5,��
2021/06/16,06:10,0.643,0.952,0.601,1.162,0.836,0.377,0.657,0.612,�k��,2.6,��
2021/06/16,06:20,0.644,0.953,0.601,1.167,0.839,0.378,0.657,0.613,�k�k��,2.9,��
2021/06/16,06:30,0.642,0.954,0.601,1.163,0.839,0.376,0.655,0.612,�k��,2.6,��
2021/06/16,06:40,0.642,0.952,0.602,1.166,0.837,0.377,0.656,0.613,�k�k��,3.1,��
2021/06/16,06:50,0.642,0.954,0.603,1.163,0.838,0.377,0.656,0.613,�k�k��,3.1,��
2021/06/16,07:00,0.642,0.954,0.600,1.164,0.837,0.377,0.655,0.612,�k�k��,3.1,��
2021/06/16,07:10,0.641,0.952,0.602,1.163,0.838,0.377,0.655,0.612,�k�k��,1.7,��
2021/06/16,07:20,0.641,0.953,0.601,1.164,0.836,0.377,0.656,0.610,�k�k��,1.7,��
2021/06/16,07:30,0.641,0.950,0.602,1.160,0.836,0.376,0.656,0.611,�k�k��,1.4,��
2021/06/16,07:40,0.638,0.950,0.598,1.164,0.836,0.375,0.653,0.610,�k,1.1,��
2021/06/16,07:50,0.639,0.950,0.599,1.161,0.833,0.374,0.653,0.609,�k�k��,1.4,��
2021/06/16,08:00,0.640,0.949,0.598,1.159,0.835,0.374,0.652,0.610,�k�k��,1.1,��
2021/06/16,08:10,0.639,0.948,0.599,1.161,0.835,0.374,0.653,0.610,�k�k��,1.2,��
2021/06/16,08:20,0.640,0.949,0.600,1.162,0.833,0.375,0.654,0.608,�k,1.4,��
2021/06/16,08:30,0.641,0.950,0.597,1.163,0.833,0.373,0.654,0.608,�k��,1.7,��
2021/06/16,08:40,0.641,0.947,0.600,1.163,0.834,0.374,0.654,0.611,�k�k��,2.3,��
2021/06/16,08:50,0.641,0.947,0.598,1.164,0.832,0.372,0.653,0.609,�k�k��,2.0,��
2021/06/16,09:00,0.642,0.948,0.597,1.161,0.833,0.374,0.654,0.608,�k��,1.5,��
2021/06/16,09:10,0.644,0.947,0.596,1.160,0.833,0.375,0.655,0.608,�k��,1.7,��
2021/06/16,09:20,0.642,0.947,0.598,1.162,0.834,0.374,0.655,0.607,�k��,1.7,��
2021/06/16,09:30,0.642,0.947,0.598,1.162,0.835,0.375,0.654,0.608,���k��,1.7,��
2021/06/16,09:40,0.640,0.944,0.596,1.161,0.832,0.375,0.655,0.608,���k��,2.5,��
2021/06/16,09:50,0.642,0.949,0.597,1.161,0.834,0.375,0.655,0.607,���k��,2.3,��
2021/06/16,10:00,0.641,0.950,0.598,1.158,0.833,0.375,0.653,0.608,��,1.1,��
2021/06/16,10:10,0.642,0.949,0.599,1.161,0.834,0.375,0.654,0.609,���k��,1.7,��
2021/06/16,10:20,0.640,0.943,0.595,1.160,0.833,0.374,0.657,0.608,��,1.7,��
2021/06/16,10:30,0.643,0.947,0.598,1.158,0.835,0.375,0.656,0.609,���쓌,2.2,��
2021/06/16,10:40,0.642,0.948,0.599,1.163,0.833,0.374,0.655,0.608,�쓌,2.0,��
2021/06/16,10:50,0.642,0.950,0.598,1.159,0.835,0.374,0.655,0.609,�쓌,3.1,��
2021/06/16,11:00,0.643,0.952,0.598,1.160,0.835,0.374,0.655,0.610,�쓌,3.0,��
2021/06/16,11:10,0.643,0.950,0.598,1.159,0.836,0.374,0.657,0.609,���쓌,3.4,��
2021/06/16,11:20,0.643,0.949,0.600,1.160,0.835,0.375,0.656,0.610,�쓌,3.0,��
2021/06/16,11:30,0.642,0.949,0.600,1.161,0.835,0.374,0.656,0.609,�쓌,3.3,��
2021/06/16,11:40,0.643,0.952,0.598,1.160,0.833,0.375,0.656,0.609,���쓌,3.3,��
2021/06/16,11:50,0.642,0.952,0.598,1.160,0.835,0.375,0.656,0.610,���쓌,2.3,��
2021/06/16,12:00,0.642,0.953,0.600,1.161,0.836,0.374,0.656,0.609,�쓌,2.5,��
2021/06/16,12:10,0.644,0.954,0.599,1.162,0.838,0.376,0.655,0.609,���쓌,3.0,��
2021/06/16,12:20,0.642,0.952,0.599,1.163,0.835,0.376,0.655,0.611,���쓌,2.9,��
2021/06/16,12:30,0.646,0.952,0.598,1.164,0.836,0.375,0.656,0.610,�쓌,2.8,��
2021/06/16,12:40,0.644,0.953,0.600,1.165,0.834,0.376,0.655,0.610,�쓌,2.9,��
2021/06/16,12:50,0.642,0.954,0.599,1.162,0.835,0.375,0.654,0.609,�쓌,3.4,��
2021/06/16,13:00,0.644,0.952,0.599,1.162,0.836,0.376,0.654,0.609,�쓌,3.2,��
2021/06/16,13:10,0.643,0.954,0.600,1.165,0.836,0.375,0.656,0.610,�쓌,4.1,��
2021/06/16,13:20,0.643,0.950,0.598,1.161,0.836,0.375,0.656,0.608,��쓌,2.6,��
2021/06/16,13:30,0.644,0.951,0.601,1.162,0.836,0.375,0.655,0.610,�쓌,2.6,��
2021/06/16,13:40,0.643,0.950,0.600,1.163,0.836,0.374,0.656,0.610,�쓌,2.9,��
2021/06/16,13:50,0.643,0.950,0.600,1.162,0.835,0.374,0.654,0.610,�쓌,3.9,��
2021/06/16,14:00,0.643,0.952,0.598,1.161,0.836,0.375,0.656,0.611,�쓌,4.4,��
2021/06/16,14:10,0.644,0.950,0.599,1.163,0.838,0.375,0.656,0.607,�쓌,4.4,��
2021/06/16,14:20,0.642,0.950,0.598,1.160,0.836,0.376,0.656,0.609,�쓌,4.6,��
2021/06/16,14:30,0.642,0.952,0.598,1.162,0.836,0.375,0.654,0.608,���쓌,3.4,��
2021/06/16,14:40,0.645,0.950,0.599,1.162,0.836,0.376,0.656,0.608,���쓌,4.6,��
2021/06/16,14:50,0.644,0.949,0.598,1.162,0.837,0.375,0.656,0.609,���쓌,4.0,��
2021/06/16,15:00,0.643,0.949,0.598,1.162,0.834,0.375,0.655,0.610,�쓌,4.2,��
2021/06/16,15:10,0.644,0.952,0.600,1.160,0.836,0.375,0.657,0.608,�쓌,4.1,��
2021/06/16,15:20,0.644,0.953,0.598,1.161,0.836,0.375,0.656,0.609,���쓌,4.7,��
2021/06/16,15:30,0.643,0.953,0.599,1.162,0.836,0.375,0.654,0.608,�쓌,4.8,��
2021/06/16,15:40,0.644,0.952,0.599,1.163,0.838,0.376,0.656,0.609,�쓌,3.9,��
2021/06/16,15:50,0.644,0.953,0.599,1.164,0.838,0.374,0.655,0.609,�쓌,2.6,��
2021/06/16,16:00,0.643,0.951,0.600,1.165,0.838,0.376,0.656,0.609,��,1.5,��
2021/06/16,16:10,0.645,0.954,0.599,1.164,0.838,0.374,0.655,0.609,��쐼,1.7,��
2021/06/16,16:20,0.643,0.955,0.599,1.164,0.836,0.374,0.655,0.609,��,1.5,��
2021/06/16,16:30,0.644,0.954,0.601,1.163,0.837,0.374,0.656,0.609,�쓌,1.9,��
2021/06/16,16:40,0.644,0.954,0.599,1.165,0.835,0.375,0.656,0.609,�쓌,2.3,��
2021/06/16,16:50,0.644,0.958,0.599,1.167,0.836,0.374,0.655,0.610,��쓌,1.5,��
2021/06/16,17:00,0.643,0.956,0.601,1.166,0.836,0.374,0.656,0.609,��쓌,1.7,��
2021/06/16,17:10,0.643,0.955,0.602,1.165,0.836,0.374,0.656,0.608,��쓌,1.5,��
2021/06/16,17:20,0.645,0.955,0.601,1.166,0.837,0.375,0.655,0.609,�쓌,1.1,��
2021/06/16,17:30,0.645,0.956,0.601,1.164,0.837,0.376,0.657,0.610,��쓌,1.1,��
2021/06/16,17:40,0.643,0.954,0.602,1.168,0.837,0.375,0.656,0.610,��쓌,2.3,��
2021/06/16,17:50,0.643,0.956,0.602,1.168,0.837,0.375,0.655,0.611,�쓌,1.9,��
2021/06/16,18:00,0.644,0.957,0.602,1.166,0.838,0.376,0.656,0.610,���쓌,1.1,��
2021/06/16,18:10,0.645,0.954,0.600,1.166,0.838,0.376,0.656,0.610,��,1.5,��
2021/06/16,18:20,0.645,0.956,0.602,1.168,0.836,0.375,0.656,0.611,��,1.7,��
2021/06/16,18:30,0.645,0.957,0.602,1.167,0.837,0.377,0.658,0.610,���k��,0.9,��
2021/06/16,18:40,0.644,0.959,0.603,1.167,0.837,0.376,0.656,0.610,�k��,1.1,��
2021/06/16,18:50,0.646,0.956,0.602,1.169,0.839,0.376,0.656,0.611,���k��,1.2,��
2021/06/16,19:00,0.644,0.958,0.601,1.166,0.838,0.377,0.657,0.612,���k��,1.2,��
2021/06/16,19:10,0.645,0.958,0.602,1.167,0.839,0.376,0.656,0.611,�k��,1.5,��
2021/06/16,19:20,0.646,0.957,0.604,1.167,0.840,0.375,0.656,0.612,���k��,1.7,��
2021/06/16,19:30,0.645,0.958,0.602,1.166,0.841,0.375,0.656,0.612,�k��,1.4,��
2021/06/16,19:40,0.645,0.957,0.602,1.168,0.840,0.376,0.658,0.611,���k��,1.2,��
2021/06/16,19:50,0.644,0.958,0.601,1.168,0.839,0.377,0.657,0.612,�k�k��,0.9,��
2021/06/16,20:00,0.645,0.959,0.602,1.166,0.838,0.375,0.658,0.610,�k�k��,0.6,��
2021/06/16,20:10,0.644,0.958,0.602,1.167,0.839,0.376,0.655,0.613,�k,0.9,��
2021/06/16,20:20,0.645,0.957,0.601,1.166,0.839,0.376,0.657,0.612,�k��,0.9,��
2021/06/16,20:30,0.645,0.956,0.601,1.169,0.837,0.377,0.656,0.613,�k��,0.9,��
2021/06/16,20:40,0.645,0.957,0.602,1.167,0.840,0.376,0.658,0.612,�k,0.9,��
2021/06/16,20:50,0.645,0.956,0.602,1.166,0.838,0.375,0.657,0.613,�k,1.4,��
2021/06/16,21:00,0.646,0.959,0.600,1.168,0.839,0.376,0.657,0.611,�k�k��,1.5,��
2021/06/16,21:10,0.647,0.954,0.602,1.166,0.840,0.376,0.656,0.611,���k��,1.2,��
2021/06/16,21:20,0.644,0.955,0.602,1.169,0.838,0.376,0.657,0.612,�k��,1.1,��
2021/06/16,21:30,0.644,0.957,0.602,1.166,0.840,0.376,0.657,0.610,�k,1.2,��
2021/06/16,21:40,0.644,0.959,0.601,1.164,0.839,0.374,0.655,0.611,�k��,1.2,��
2021/06/16,21:50,0.645,0.955,0.602,1.165,0.838,0.377,0.658,0.612,�k�k��,1.7,��
2021/06/16,22:00,0.646,0.954,0.602,1.166,0.838,0.376,0.657,0.611,�k�k��,2.0,��
2021/06/16,22:10,0.642,0.957,0.600,1.165,0.838,0.375,0.658,0.610,�k�k��,2.3,��
2021/06/16,22:20,0.643,0.956,0.599,1.166,0.838,0.376,0.656,0.611,�k,2.6,��
2021/06/16,22:30,0.643,0.957,0.602,1.165,0.839,0.377,0.657,0.611,�k,1.9,��
2021/06/16,22:40,0.643,0.956,0.602,1.169,0.839,0.375,0.655,0.611,�k�k��,2.0,��
2021/06/16,22:50,0.640,0.956,0.602,1.167,0.838,0.374,0.656,0.612,�k�k��,2.0,��
2021/06/16,23:00,0.642,0.957,0.599,1.165,0.840,0.375,0.657,0.613,�k�k��,2.9,��
2021/06/16,23:10,0.643,0.953,0.600,1.166,0.839,0.376,0.657,0.611,�k,2.8,��
2021/06/16,23:20,0.642,0.954,0.600,1.163,0.840,0.375,0.656,0.611,�k�k��,3.1,��
2021/06/16,23:30,0.641,0.954,0.602,1.167,0.838,0.377,0.656,0.611,�k��,5.1,��
2021/06/16,23:40,0.640,0.955,0.601,1.167,0.839,0.376,0.657,0.610,�k�k��,5.0,�L
2021/06/16,23:50,0.641,0.953,0.599,1.166,0.838,0.377,0.655,0.610,�k��,3.9,�L
